Theta_e
355 362 367 366 365 365 366 366 367 368 368 368 367 366 365 364 364 364 364 364 362 361 361 360 360 360 360 360 360 360 359 359 357 356 358 358 356 356 358 354 355 350 357
355 361 367 367 365 365 365 366 367 368 368 369 368 366 366 366 363 363 362 362 361 360 361 360 360 361 360 360 360 359 358 359 356 357 358 358 355 357 356 355 352 353 357
356 360 363 367 367 365 365 365 365 367 366 366 366 367 366 365 363 361 361 361 360 359 360 360 360 360 359 358 358 357 358 358 359 358 356 353 352 354 356 356 356 356 357
358 360 362 367 367 367 365 365 365 366 364 365 366 366 365 364 362 362 361 361 360 359 359 357 360 360 360 359 359 359 357 357 358 357 355 353 351 355 356 357 356 356 354
359 361 363 369 368 365 365 366 366 366 365 364 364 364 363 363 363 362 361 362 360 360 361 358 357 359 360 360 360 359 359 358 357 356 356 357 352 352 355 355 355 353 352
359 360 367 370 366 365 365 365 365 364 364 364 364 364 363 363 362 362 361 362 360 360 360 361 359 353 359 358 360 359 358 358 358 356 357 357 354 354 354 353 353 352 353
360 361 364 369 368 367 366 365 365 365 364 363 363 363 363 362 361 361 361 360 359 359 358 359 360 358 360 360 359 359 358 357 355 355 356 355 353 356 354 355 356 356 353
359 361 363 367 368 366 365 365 365 364 364 363 363 363 362 361 361 361 360 359 358 360 359 357 359 357 360 360 358 358 358 356 353 353 354 356 355 355 352 355 356 355 353
361 362 364 365 366 366 365 365 364 363 363 363 364 362 362 362 362 361 360 358 357 357 357 358 357 358 359 361 358 359 356 355 357 355 355 354 356 356 353 355 356 353 353
360 361 363 365 365 365 365 365 364 365 364 363 365 362 362 363 362 360 360 360 358 357 357 354 354 358 359 362 360 358 357 356 354 356 357 354 355 356 356 356 355 353 353
358 357 362 363 365 366 366 364 365 364 364 364 362 361 362 360 360 359 359 359 359 357 357 356 355 356 358 359 361 358 356 356 355 357 355 356 355 356 357 358 357 356 354
350 353 357 361 362 363 361 366 365 364 362 361 360 363 363 361 361 360 360 360 359 359 358 357 357 357 357 356 356 357 353 356 355 356 358 355 357 356 355 359 358 356 355
353 354 357 360 363 362 361 362 362 362 361 362 364 365 365 361 362 363 365 365 361 359 361 358 357 358 357 356 354 352 354 354 353 354 356 355 358 356 356 358 359 357 356
352 354 357 360 362 362 362 362 362 359 360 358 361 365 362 360 359 359 363 360 356 359 360 361 357 356 358 358 356 353 353 350 351 351 355 356 358 358 357 359 359 358 357
350 353 355 357 357 360 360 359 357 360 359 360 360 362 362 359 358 358 357 359 360 361 365 364 363 360 357 357 357 356 353 352 351 349 351 355 356 358 358 357 360 358 358
351 352 352 351 353 353 358 352 352 353 361 364 363 361 361 359 362 362 363 363 366 365 360 364 363 362 361 356 357 356 356 355 354 354 351 352 356 358 359 359 360 359 359
351 352 350 348 351 349 355 352 351 350 351 356 354 358 359 361 361 364 359 361 364 360 360 360 360 359 357 358 357 358 357 357 354 355 355 354 353 355 357 359 359 361 359
353 352 349 349 345 342 352 352 349 350 347 344 347 353 353 360 362 364 364 356 359 357 353 354 359 354 354 354 355 358 359 356 357 357 356 355 355 354 356 358 358 358 358
354 353 349 347 343 347 350 348 343 344 346 342 349 353 357 359 358 359 357 357 359 355 352 351 349 351 352 354 351 353 354 352 352 351 353 354 358 358 356 357 357 356 357
355 355 352 347 344 347 348 346 344 340 346 343 352 351 355 360 360 363 360 358 358 355 354 353 352 349 347 345 345 347 350 350 350 351 351 353 356 358 358 358 363 356 357
354 354 354 349 345 346 347 346 344 339 343 343 349 353 352 359 357 361 358 357 357 354 354 355 352 351 348 349 343 342 343 347 348 348 349 351 355 355 355 360 364 364 360
352 354 354 351 348 343 343 345 345 339 345 349 350 348 352 357 358 359 358 356 355 352 353 353 351 347 347 346 344 339 335 338 342 345 347 349 352 352 353 355 358 360 361
350 350 353 351 347 342 345 344 345 344 345 349 348 348 351 355 354 355 355 355 354 352 348 351 350 347 345 343 348 344 335 330 337 344 346 345 347 348 351 354 357 358 361
350 351 352 348 345 342 344 342 344 342 344 347 349 350 350 349 349 350 351 351 352 350 350 350 351 350 347 340 341 345 344 343 335 332 338 338 344 346 352 354 354 359 359
349 349 349 346 345 344 344 345 344 347 348 348 348 349 348 350 349 349 351 350 350 350 351 352 351 349 348 346 344 340 341 343 345 342 336 335 342 343 345 351 356 353 354
349 346 348 345 345 345 343 345 346 349 348 347 346 344 345 348 349 349 349 347 346 348 349 351 352 351 348 346 347 345 342 339 339 342 341 339 338 338 342 345 346 346 351
Wind_Speed
13 13 14 13 13 13 13 13 13 13 13 15 15 15 14 14 14 12 11 9 10 10 10 9 10 10 9 10 11 11 11 11 11 11 11 11 11 10 14 14 11 13 14
16 14 14 13 14 13 13 13 13 13 14 14 15 14 14 13 12 12 10 10 9 9 9 9 8 9 9 10 10 10 11 10 11 12 13 13 11 10 12 12 8 12 12
16 14 15 13 13 14 14 13 13 13 14 14 15 14 13 13 12 11 10 8 8 7 7 9 9 8 10 9 10 9 10 8 12 12 11 9 9 10 11 11 11 12 13
15 14 14 13 14 13 13 13 12 13 14 13 13 13 12 12 11 10 8 7 6 7 11 1 8 7 11 9 9 10 8 8 10 11 7 7 9 9 9 11 10 12 11
14 14 14 14 14 15 13 13 12 11 13 13 13 13 12 11 10 10 9 8 6 7 11 11 5 8 9 10 11 11 11 8 9 7 6 5 5 9 9 10 11 10 9
13 13 15 15 15 15 14 13 13 12 11 12 12 12 11 10 9 8 7 7 5 7 8 9 11 5 7 8 10 11 10 9 9 6 5 6 4 9 8 10 10 11 8
12 12 14 14 13 14 14 14 13 12 11 11 11 12 11 10 8 7 6 5 4 4 3 7 10 10 10 10 9 10 10 10 7 6 6 5 5 7 8 9 10 11 9
12 12 12 12 13 13 14 14 14 13 11 11 11 10 10 9 8 7 5 4 4 4 3 3 6 9 11 10 10 9 10 8 7 4 5 5 5 6 7 7 8 8 9
10 9 10 11 11 13 12 12 13 14 12 10 10 9 8 8 7 6 4 3 2 3 3 3 4 8 10 12 11 10 9 9 5 4 5 5 7 8 8 8 8 7 7
10 9 9 8 9 9 10 11 11 11 12 10 10 8 7 6 6 6 4 4 3 2 2 0 2 7 9 11 11 11 10 8 6 4 6 4 9 9 10 10 10 8 7
8 8 7 9 8 8 7 8 9 10 11 10 9 10 9 5 6 6 3 3 3 3 2 2 1 2 6 9 11 11 9 5 5 4 4 9 11 11 11 8 10 10 10
11 9 7 9 8 8 6 8 8 7 7 7 7 8 7 5 5 5 4 5 5 4 4 3 3 3 6 5 6 8 6 6 5 4 3 10 13 13 11 9 8 9 10
11 8 9 9 8 8 6 6 4 5 5 5 7 7 5 5 5 4 4 4 4 5 4 6 5 5 6 4 5 5 6 6 4 4 3 10 11 13 13 11 11 12 13
13 11 9 8 6 7 4 4 4 4 5 5 7 7 5 5 6 5 4 3 3 3 6 6 4 5 6 6 7 7 8 6 5 4 5 8 10 14 14 13 13 13 13
11 9 10 8 8 7 6 4 3 5 6 6 6 7 6 6 6 5 5 5 5 6 5 6 5 6 6 6 6 7 8 8 7 5 4 8 10 13 15 14 15 15 15
10 11 9 10 10 10 9 4 4 3 8 6 7 7 8 6 5 5 5 5 4 4 4 5 5 5 5 6 7 8 8 7 8 7 6 6 11 9 14 16 14 16 17
12 13 13 10 7 6 8 7 7 6 6 7 6 8 10 9 9 6 5 5 3 4 5 5 5 5 5 6 8 6 6 8 7 8 7 6 7 13 12 15 15 15 16
14 16 12 8 5 3 6 5 4 3 3 2 2 5 6 8 9 6 5 5 4 3 3 4 5 5 6 6 6 6 5 5 8 8 8 8 7 7 9 13 16 17 17
16 16 14 8 4 1 4 4 2 3 3 2 6 5 4 9 8 7 5 5 5 5 5 5 4 5 5 6 6 6 6 6 7 7 9 10 10 9 7 8 12 15 17
15 16 14 11 4 4 4 4 2 1 3 4 3 1 5 5 9 6 4 4 4 4 5 5 7 4 6 4 4 7 6 7 7 8 9 9 9 10 10 10 7 9 14
12 13 13 11 6 5 3 3 3 3 3 1 1 2 3 4 3 3 3 4 4 5 5 5 5 7 6 5 4 5 6 9 9 8 8 8 8 9 7 8 6 5 5
10 11 11 9 7 5 4 2 1 2 1 2 2 2 3 4 0 1 1 2 3 4 5 5 6 5 5 6 5 2 4 5 7 9 7 7 8 6 8 9 8 8 5
11 10 10 9 8 7 4 4 3 3 4 3 2 2 2 2 3 2 1 3 4 5 6 7 7 9 6 5 9 4 3 3 2 3 5 5 6 6 6 7 7 7 5
9 9 10 9 10 7 7 5 6 5 4 2 3 4 3 4 4 4 4 4 5 5 7 7 6 7 7 5 3 7 4 3 3 3 1 1 2 3 5 4 5 5 3
9 11 11 9 9 7 6 5 4 5 5 6 4 4 3 2 4 4 4 4 4 4 6 6 6 6 6 5 6 3 6 6 3 3 2 2 4 3 3 2 1 1 3
7 8 9 10 10 8 7 7 5 7 9 7 5 3 2 1 2 4 5 4 4 3 3 4 5 6 6 7 6 7 6 5 7 4 2 3 5 3 4 4 4 4 4
Wind_Direction
158 149 140 136 130 122 119 110 109 115 121 140 142 142 144 142 141 140 136 139 131 126 123 120 130 125 122 120 121 127 123 123 121 128 127 123 125 127 126 122 144 116 122
150 149 139 138 135 132 125 119 113 112 117 123 136 140 137 134 137 136 135 138 138 139 131 127 127 131 129 130 129 127 136 130 141 133 128 123 125 125 125 127 126 114 116
147 148 147 143 142 135 130 126 123 122 122 120 127 132 136 136 138 140 144 148 151 147 133 135 139 147 130 133 133 143 140 142 133 137 135 132 133 136 138 133 123 134 122
146 151 154 148 141 136 137 133 129 128 129 129 131 134 140 143 148 151 153 156 168 140 113 201 151 151 136 142 141 141 139 145 129 135 159 138 135 143 134 136 126 123 125
152 154 151 147 143 145 145 142 140 137 138 140 142 146 150 153 158 154 159 153 147 154 157 168 171 151 151 158 147 145 147 153 126 158 149 138 139 139 142 136 140 137 153
153 156 149 146 149 149 148 151 149 147 146 146 147 148 150 152 153 152 154 151 148 141 153 164 143 167 161 160 145 145 148 155 144 134 148 135 150 141 168 154 150 139 150
152 155 158 149 152 152 155 156 155 152 153 151 152 153 151 150 151 152 150 146 140 134 116 153 165 175 172 154 156 154 155 159 156 155 153 150 153 162 167 169 157 153 154
152 155 159 155 155 159 164 161 160 160 162 161 158 158 159 156 160 166 164 166 167 162 143 136 164 163 177 163 164 162 163 169 177 174 168 185 125 183 181 172 159 157 166
153 155 161 165 166 167 170 171 169 165 170 174 169 166 170 171 174 169 177 182 202 220 162 131 158 167 173 168 164 164 165 181 187 211 211 197 169 197 198 175 170 171 189
159 158 165 173 178 181 174 177 181 175 173 181 164 169 186 177 176 184 182 183 192 194 165 215 81 174 177 176 169 172 173 185 215 216 207 183 174 208 216 184 177 185 199
165 170 177 181 186 184 187 185 187 190 191 183 177 182 186 199 193 189 168 182 203 207 230 220 181 132 177 187 172 179 181 186 202 197 191 148 191 201 228 208 188 181 196
178 177 190 188 196 194 194 196 197 201 198 199 196 193 193 191 204 215 222 221 225 222 231 229 225 182 188 185 174 183 201 196 204 205 216 182 197 205 215 208 204 195 213
179 181 190 190 194 204 208 208 201 202 205 206 208 213 199 201 205 213 218 213 224 220 242 205 200 210 185 189 197 199 196 206 217 215 209 212 209 210 212 219 204 213 208
185 183 182 201 214 215 217 224 254 232 224 214 207 214 208 215 214 224 234 215 213 246 223 226 212 219 209 196 196 205 208 209 213 228 214 206 218 210 216 217 214 217 220
183 168 186 177 197 210 204 187 244 256 252 231 227 216 217 227 229 219 225 223 236 236 223 222 216 215 217 214 213 209 217 219 219 223 231 230 237 225 219 222 218 221 224
167 173 178 204 215 162 188 154 212 263 274 247 233 226 223 232 243 238 241 235 234 201 219 236 229 222 220 227 221 213 218 222 223 228 232 231 235 244 220 223 225 225 227
174 177 194 210 233 156 193 178 208 206 255 273 302 253 227 217 239 226 244 245 236 235 237 222 230 243 241 230 241 236 225 223 225 227 233 232 235 229 241 230 226 227 231
175 187 199 211 272 226 209 192 206 234 231 271 313 257 264 263 256 240 237 238 221 222 221 256 227 226 237 239 249 234 224 235 238 234 238 244 233 248 216 233 224 228 227
181 180 199 189 216 206 180 142 117 199 162 214 252 266 293 261 237 233 235 242 211 217 229 235 256 260 258 241 240 249 243 242 244 239 238 238 235 240 242 217 229 227 227
181 188 181 191 181 106 136 145 153 230 222 201 213 196 315 266 227 209 198 193 197 219 235 235 243 230 245 245 261 248 241 240 236 237 243 236 231 234 233 236 234 234 232
186 189 186 184 169 142 155 200 206 186 221 173 134 346 294 331 233 186 161 177 193 226 243 233 239 244 237 227 223 232 247 237 229 230 233 233 229 225 244 239 239 236 241
189 193 185 172 170 181 183 203 170 160 185 94 42 18 11 275 86 121 166 209 235 259 253 248 234 240 244 198 225 205 241 197 230 231 231 233 227 214 239 239 241 249 240
186 188 181 163 169 171 169 153 152 154 144 146 112 102 108 95 73 40 320 294 277 266 266 261 243 231 237 201 226 234 186 225 163 179 213 251 254 243 244 239 240 238 244
178 173 170 158 159 165 158 180 175 157 140 105 120 108 98 44 26 356 320 299 281 276 264 255 242 236 223 208 209 239 255 308 216 169 130 20 22 253 241 225 235 242 189
164 169 163 162 159 162 162 176 159 139 129 131 134 122 67 50 20 2 342 311 290 268 255 255 247 226 226 221 211 184 229 237 248 251 196 137 92 26 359 277 250 125 118
169 162 159 164 159 160 175 161 155 154 147 150 135 144 125 132 79 32 12 7 349 337 296 286 277 261 227 219 221 215 208 199 213 208 174 126 98 44 42 66 83 88 125